sat.trackr.live / text

‹ back to catalog

STARLINK-31714

NORAD 59387 · 2024-062P

PAYLOAD ACTIVE UNKNOWN

§ Identity

Operator
Country
US
Launch date
2024-04-02
Launch site
AFWTR
Launch vehicle
Mass (kg)
RCS (m²)

Purposes: comms

External: N2YO · Heavens-Above · Gunter

§ Orbital elements

Epoch: 2026-09-20T00:43:26.300064Z

Period
93.85 min
Inclination
53.1602°
Eccentricity
0.0000908
Mean motion
15.34402478 rev/d
Perigee alt
462.1 km
Apogee alt
463.3 km
Semi-major
6,840.8 km
B*
7.3415e-5
RAAN
69.5789°
Arg perigee
89.3917°
Mean anomaly
270.7190°
Rev number
13,942

§ Raw data

STARLINK-317141 59387U 24062P   26263.03016551  .00002105  00000+0  73415-4 0  99972 59387  53.1602  69.5789 0000908  89.3917 270.7190 15.34402478139422

JSON: /api/v1/satellites/59387 · /tle

For live sub-satellite position, see the globe view (requires WebGL).

§ Visibility from observer

Set your observer location to see the next 7 days of passes ≥ 10°. The values pass through the URL so the page stays shareable.

No JS? Fill the form by hand. The geolocation button needs JavaScript.